Hourly Data Report for April 04, 2004

SHERBROOKE A
QUEBEC

45°26'00.000" N
71°41'00.000" W
241.40 m
7028124
71610
YSC

Download Data

Hourly Data (April 2004)
Hourly Data Report for April 4, 2004
TIME
LST
Temp Definition
°C
Dew Point Definition
°C
Rel Hum Definition
%
Precip. Amount Definition
mm

Wind Dir Definition
10's deg

Wind Spd Definition
km/h
Visibility Definition
km
Stn Press Definition
kPa
Hmdx Definition


Wind Chill Definition


Weather Definition


00:00 3.4 1.4 87   7 4 15.0 97.02      
01:00 3.4 1.3 86   6 6 15.0 97.00      
02:00 3.0 1.2 88   5 7 15.0 96.92      
03:00 2.9 1.1 88   8 7 15.0 96.86      
04:00 2.6 1.0 89   5 7 15.0 96.85      
05:00 2.4 1.0 90   4 6 15.0 96.82      
06:00 2.3 0.9 90   6 11 15.0 96.77      
07:00 2.4 1.0 90   6 11 19.3 96.75     Cloudy
08:00 2.7 1.3 90   4 9 19.3 96.72     Rain
09:00 4.1 1.8 85   6 9 19.3 96.69     Rain Showers
10:00 5.1 1.8 79   35 7 24.1 96.68     Mostly Cloudy
11:00 5.2 1.7 78   1 9 19.3 96.66     Rain Showers
12:00 5.0 0.7 74   2 7 19.3 96.65     Rain Showers
13:00 5.1 1.8 79   2 9 19.3 96.61     Rain
14:00 4.7 1.1 77   2 13 19.3 96.55     Rain
15:00 3.9 2.0 87   34 6 19.3 96.54     Rain
16:00 3.5 2.0 90   34 7 16.1 96.55     Rain
17:00 2.7 1.3 90   34 9 9.7 96.58     Rain
18:00 1.6 0.6 93   32 9 11.3 96.59     Rain
19:00 0.6 -0.4 93   33 13 4.8 96.62      
20:00 0.0 -1.0 93   32 19 1.6 96.68   -5  
21:00 -1.2 -2.9 88   32 19 6.4 96.73   -7  
22:00 -2.1 -3.8 88   31 11 1.6 96.79   -6 Snow
23:00 -3.3 -4.9 89   31 11 0.6 96.85   -8 Snow

Notes on Data Quality.

Legend

  • E = Estimated
  • M = Missing
  • NA = Not Available*
  • [empty] = Indicates an unobserved value
Date modified: